Terminal Aerodrome Forecast
Issued by NWS

Home | Current Version | Previous Version | Text Only | Print | Product List | Glossary On
Versions: 1 2 3 4 5 6 7 8 9 10 11 12 13
420
FTUS46 KMFR 251139
TAFLMT
TAF
KLMT 251139Z 2512/2612 04006KT P6SM SKC
     FM252300 35009G15KT P6SM SKC=

USA.gov is the U.S. government's official web portal to all federal, state and local government web resources and services.